| time (UTC) | temp F | wind direction | speed MPH | gust MPH | rain 1hr in | rain 24hr in | rain mn in | humidity % | barometer mb |
| 20260504185351 | 69 | 203 | 9.0 | 19.0 | 0.00 | 0.00 | 0.00 | 35 | 1007.5 |
| 20260504184847 | 69 | 267 | 5.0 | 14.0 | 0.00 | 0.00 | 0.00 | 34 | 1007.3 |
| 20260504184343 | 67 | 198 | 6.0 | 14.0 | 0.00 | 0.00 | 0.00 | 34 | 1007.6 |
| 20260504183839 | 68 | 175 | 9.0 | 17.0 | 0.00 | 0.00 | 0.00 | 34 | 1007.8 |
| 20260504183336 | 70 | 284 | 1.0 | 14.0 | 0.00 | 0.00 | 0.00 | 37 | 1007.6 |
| 20260504182834 | 69 | 257 | 5.0 | 14.0 | 0.00 | 0.00 | 0.00 | 35 | 1007.8 |
| 20260504182331 | 70 | 238 | 3.0 | 7.0 | 0.00 | 0.00 | 0.00 | 35 | 1007.9 |
| 20260504181828 | 67 | 233 | 7.0 | 14.0 | 0.00 | 0.00 | 0.00 | 35 | 1007.6 |
| 20260504181326 | 68 | 215 | 8.0 | 20.0 | 0.00 | 0.00 | 0.00 | 35 | 1008.0 |
| 20260504180824 | 68 | 235 | 7.0 | 15.0 | 0.00 | 0.00 | 0.00 | 35 | 1007.9 |
| 20260504180322 | 67 | 328 | 4.0 | 12.0 | 0.00 | 0.00 | 0.00 | 34 | 1007.9 |
| 20260504175820 | 68 | 190 | 4.0 | 23.0 | 0.00 | 0.00 | 0.00 | 35 | 1008.1 |
| 20260504175317 | 67 | 188 | 9.0 | 22.0 | 0.00 | 0.00 | 0.00 | 35 | 1007.6 |
| 20260504174815 | 67 | 278 | 4.0 | 20.0 | 0.00 | 0.00 | 0.00 | 34 | 1008.1 |
| 20260504174312 | 66 | 200 | 6.0 | 13.0 | 0.00 | 0.00 | 0.00 | 35 | 1008.2 |
| 20260504173809 | 66 | 230 | 12.0 | 23.0 | 0.00 | 0.00 | 0.00 | 33 | 1008.3 |
| 20260504173305 | 67 | 264 | 5.0 | 9.0 | 0.00 | 0.00 | 0.00 | 35 | 1008.3 |
| 20260504172803 | 66 | 168 | 5.0 | 16.0 | 0.00 | 0.00 | 0.00 | 33 | 1008.1 |
| 20260504172259 | 67 | 248 | 6.0 | 18.0 | 0.00 | 0.00 | 0.00 | 34 | 1008.2 |
| 20260504171755 | 66 | 307 | 5.0 | 14.0 | 0.00 | 0.00 | 0.00 | 32 | 1008.5 |
| 20260504171252 | 66 | 292 | 2.0 | 15.0 | 0.00 | 0.00 | 0.00 | 35 | 1008.5 |
| 20260504170749 | 67 | 191 | 12.0 | 13.0 | 0.00 | 0.00 | 0.00 | 34 | 1008.6 |
| 20260504170246 | 66 | 285 | 5.0 | 15.0 | 0.00 | 0.00 | 0.00 | 34 | 1008.5 |
| 20260504160205 | 65 | 229 | 18.0 | 19.0 | 0.00 | 0.00 | 0.00 | 37 | 1009.3 |
| 20260504151133 | 62 | 354 | 7.0 | 16.0 | 0.00 | 0.00 | 0.00 | 38 | 1009.4 |
| 20260504150630 | 63 | 218 | 16.0 | 16.0 | 0.00 | 0.00 | 0.00 | 38 | 1009.3 |
| 20260504150127 | 62 | 231 | 6.0 | 25.0 | 0.00 | 0.00 | 0.00 | 38 | 1009.4 |
| 20260504141055 | 60 | 278 | 5.0 | 12.0 | 0.00 | 0.00 | 0.00 | 42 | 1010.0 |
| 20260504140552 | 60 | 271 | 7.0 | 21.0 | 0.00 | 0.00 | 0.00 | 43 | 1010.0 |
| 20260504130516 | 56 | 257 | 3.0 | 13.0 | 0.00 | 0.00 | 0.00 | 50 | 1010.5 |
| 20260504110404 | 49 | 188 | 3.0 | 9.0 | 0.00 | 0.00 | 0.00 | 56 | 1010.4 |
| 20260504100321 | 46 | 223 | 4.0 | 9.0 | 0.00 | 0.00 | 0.00 | 60 | 1010.4 |
| 20260504081714 | 44 | 179 | 3.0 | 5.0 | 0.00 | 0.00 | 0.00 | 61 | 1009.5 |
| 20260504081211 | 44 | 167 | 2.0 | 2.0 | 0.00 | 0.00 | 0.00 | 62 | 1009.7 |
| 20260504080707 | 44 | 179 | 2.0 | 2.0 | 0.00 | 0.00 | 0.00 | 60 | 1009.7 |
| 20260504080204 | 44 | 164 | 0.0 | 4.0 | 0.00 | 0.00 | 0.00 | 61 | 1009.9 |
| 20260504070131 | 42 | 326 | 0.0 | 1.0 | 0.00 | 0.00 | 0.00 | 75 | 1009.6 |
| 20260504050520 | 39 | 44 | 0.0 | 3.0 | 0.00 | 0.00 | 0.00 | 68 | 1009.8 |
| 20260504050017 | 39 | 91 | 1.0 | 3.0 | 0.00 | 0.00 | 0.00 | 71 | 1009.9 |
| 20260504045514 | 39 | 71 | 0.0 | 3.0 | 0.00 | 0.00 | 0.00 | 71 | 1009.9 |
| 20260504045009 | 40 | 113 | 0.0 | 4.0 | 0.00 | 0.00 | 0.00 | 67 | 1009.7 |
| 20260504044507 | 39 | 103 | 0.0 | 3.0 | 0.00 | 0.00 | 0.00 | 66 | 1009.6 |
| 20260504044004 | 39 | 49 | 0.0 | 3.0 | 0.00 | 0.00 | 0.00 | 69 | 1009.9 |
| 20260504043500 | 38 | 16 | 2.0 | 3.0 | 0.00 | 0.00 | 0.00 | 68 | 1010.1 |
| 20260504042958 | 39 | 113 | 0.0 | 2.0 | 0.00 | 0.00 | 0.00 | 69 | 1009.9 |
| 20260504042454 | 38 | 56 | 1.0 | 2.0 | 0.00 | 0.00 | 0.00 | 73 | 1010.1 |
| 20260504041951 | 38 | 83 | 0.0 | 3.0 | 0.00 | 0.00 | 0.00 | 76 | 1010.1 |
| 20260504041448 | 38 | 58 | 1.0 | 3.0 | 0.00 | 0.00 | 0.00 | 76 | 1009.8 |
| 20260504040943 | 38 | 68 | 1.0 | 3.0 | 0.00 | 0.00 | 0.00 | 75 | 1009.9 |
| 20260504040441 | 39 | 65 | 2.0 | 3.0 | 0.00 | 0.00 | 0.00 | 74 | 1009.7 |
| 20260504035937 | 39 | 347 | 0.0 | 2.0 | 0.00 | 0.00 | 0.00 | 70 | 1009.7 |
| 20260504035435 | 39 | 66 | 0.0 | 2.0 | 0.00 | 0.00 | 0.00 | 66 | 1009.5 |
| 20260504034931 | 39 | 34 | 0.0 | 2.0 | 0.00 | 0.00 | 0.00 | 68 | 1009.6 |
| 20260504034429 | 40 | 183 | 0.0 | 3.0 | 0.00 | 0.00 | 0.00 | 64 | 1009.7 |
| 20260504033926 | 40 | 37 | 1.0 | 2.0 | 0.00 | 0.00 | 0.00 | 65 | 1009.6 |
| 20260504033423 | 40 | 77 | 2.0 | 3.0 | 0.00 | 0.00 | 0.00 | 65 | 1009.4 |
| 20260504032920 | 40 | 13 | 2.0 | 3.0 | 0.00 | 0.00 | 0.00 | 65 | 1009.5 |
| 20260504032417 | 41 | 78 | 2.0 | 2.0 | 0.00 | 0.00 | 0.00 | 66 | 1009.4 |
| 20260504031914 | 41 | 60 | 2.0 | 3.0 | 0.00 | 0.00 | 0.00 | 65 | 1009.6 |
| 20260504031411 | 41 | 67 | 3.0 | 3.0 | 0.00 | 0.00 | 0.00 | 64 | 1009.7 |
| 20260504030908 | 41 | 44 | 1.0 | 3.0 | 0.00 | 0.00 | 0.00 | 64 | 1009.6 |
| 20260504030405 | 41 | 53 | 0.0 | 2.0 | 0.00 | 0.00 | 0.00 | 66 | 1009.6 |
| 20260504025900 | 41 | 83 | 2.0 | 3.0 | 0.00 | 0.00 | 0.00 | 68 | 1009.6 |
| 20260504025358 | 41 | 123 | 1.0 | 3.0 | 0.00 | 0.00 | 0.00 | 66 | 1009.5 |
| 20260504024854 | 41 | 25 | 1.0 | 4.0 | 0.00 | 0.00 | 0.00 | 67 | 1009.6 |
| 20260504024351 | 41 | 34 | 1.0 | 3.0 | 0.00 | 0.00 | 0.00 | 64 | 1009.6 |
| 20260504023848 | 41 | 89 | 0.0 | 2.0 | 0.00 | 0.00 | 0.00 | 63 | 1009.5 |
| 20260504023345 | 40 | 111 | 0.0 | 2.0 | 0.00 | 0.00 | 0.00 | 65 | 1009.4 |
| 20260504022840 | 41 | 42 | 0.0 | 2.0 | 0.00 | 0.00 | 0.00 | 64 | 1009.5 |
| 20260504022337 | 41 | 60 | 0.0 | 2.0 | 0.00 | 0.00 | 0.00 | 62 | 1009.1 |
| 20260504021834 | 41 | 97 | 0.0 | 2.0 | 0.00 | 0.00 | 0.00 | 61 | 1009.3 |
| 20260504021331 | 41 | 51 | 0.0 | 1.0 | 0.00 | 0.00 | 0.00 | 65 | 1009.5 |
| 20260504020828 | 42 | 329 | 0.0 | 2.0 | 0.00 | 0.00 | 0.00 | 66 | 1009.3 |
| 20260504020325 | 41 | 99 | 0.0 | 1.0 | 0.00 | 0.00 | 0.00 | 62 | 1009.1 |
| 20260504015821 | 41 | 12 | 1.0 | 2.0 | 0.00 | 0.00 | 0.00 | 63 | 1009.1 |
| 20260504015317 | 41 | 21 | 1.0 | 2.0 | 0.00 | 0.00 | 0.00 | 64 | 1009.3 |
| 20260504014814 | 41 | 71 | 1.0 | 3.0 | 0.00 | 0.00 | 0.00 | 64 | 1009.2 |
| 20260504014309 | 41 | 38 | 0.0 | 2.0 | 0.00 | 0.00 | 0.00 | 63 | 1009.2 |
| 20260504013808 | 42 | 343 | 0.0 | 1.0 | 0.00 | 0.00 | 0.00 | 61 | 1009.1 |
| 20260504013305 | 42 | 27 | 0.0 | 2.0 | 0.00 | 0.00 | 0.00 | 60 | 1009.0 |
| 20260504012801 | 43 | 63 | 0.0 | 2.0 | 0.00 | 0.00 | 0.00 | 57 | 1009.0 |
| 20260504012259 | 43 | 18 | 2.0 | 3.0 | 0.00 | 0.00 | 0.00 | 55 | 1008.9 |
| 20260504011756 | 43 | 10 | 2.0 | 3.0 | 0.00 | 0.00 | 0.00 | 58 | 1008.9 |
| 20260504011253 | 42 | 27 | 2.0 | 3.0 | 0.00 | 0.00 | 0.00 | 61 | 1008.9 |
| 20260504010748 | 43 | 2 | 1.0 | 2.0 | 0.00 | 0.00 | 0.00 | 61 | 1008.8 |
| 20260504010244 | 43 | 343 | 0.0 | 2.0 | 0.00 | 0.00 | 0.00 | 56 | 1008.8 |
| 20260504005741 | 44 | 37 | 2.0 | 3.0 | 0.00 | 0.00 | 0.00 | 54 | 1008.6 |
| 20260504005238 | 44 | 21 | 1.0 | 3.0 | 0.00 | 0.00 | 0.00 | 54 | 1008.6 |
| 20260504004736 | 44 | 17 | 2.0 | 3.0 | 0.00 | 0.00 | 0.00 | 54 | 1008.4 |
| 20260504004233 | 44 | 346 | 0.0 | 3.0 | 0.00 | 0.00 | 0.00 | 53 | 1008.4 |
| 20260504003729 | 45 | 36 | 2.0 | 3.0 | 0.00 | 0.00 | 0.00 | 52 | 1008.3 |
| 20260504003226 | 45 | 19 | 2.0 | 3.0 | 0.00 | 0.00 | 0.00 | 52 | 1008.3 |
| 20260504002723 | 45 | 38 | 0.0 | 4.0 | 0.00 | 0.00 | 0.00 | 51 | 1008.1 |
| 20260504002220 | 45 | 30 | 2.0 | 3.0 | 0.00 | 0.00 | 0.00 | 52 | 1008.2 |
| 20260504001718 | 46 | 23 | 1.0 | 2.0 | 0.00 | 0.00 | 0.00 | 52 | 1008.0 |
| 20260504001214 | 46 | 39 | 3.0 | 4.0 | 0.00 | 0.00 | 0.00 | 51 | 1007.8 |
| 20260504000711 | 46 | 125 | 0.0 | 3.0 | 0.00 | 0.00 | 0.00 | 50 | 1007.6 |
| 20260504000208 | 46 | 132 | 0.0 | 3.0 | 0.00 | 0.00 | 0.00 | 52 | 1007.6 |
| 20260503235707 | 46 | 53 | 1.0 | 2.0 | 0.00 | 0.00 | 0.00 | 49 | 1007.5 |
| 20260503235203 | 47 | 79 | 2.0 | 2.0 | 0.00 | 0.00 | 0.00 | 49 | 1007.7 |
| 20260503234701 | 47 | 106 | 0.0 | 2.0 | 0.00 | 0.00 | 0.00 | 48 | 1007.7 |
| 20260503234159 | 48 | 66 | 1.0 | 3.0 | 0.00 | 0.00 | 0.00 | 47 | 1007.7 |
| 20260503233655 | 48 | 79 | 0.0 | 3.0 | 0.00 | 0.00 | 0.00 | 47 | 1007.8 |
| 20260503233151 | 48 | 315 | 0.0 | 2.0 | 0.00 | 0.00 | 0.00 | 48 | 1007.8 |
| 20260503232648 | 49 | 339 | 0.0 | 3.0 | 0.00 | 0.00 | 0.00 | 47 | 1007.7 |
| 20260503232146 | 50 | 37 | 0.0 | 3.0 | 0.00 | 0.00 | 0.00 | 45 | 1007.6 |
| 20260503231644 | 50 | 342 | 1.0 | 7.0 | 0.00 | 0.00 | 0.00 | 46 | 1007.5 |
| 20260503231140 | 50 | 301 | 0.0 | 5.0 | 0.00 | 0.00 | 0.00 | 43 | 1007.6 |
| 20260503230637 | 50 | 20 | 3.0 | 6.0 | 0.00 | 0.00 | 0.00 | 43 | 1007.6 |
| 20260503230134 | 50 | 34 | 2.0 | 7.0 | 0.00 | 0.00 | 0.00 | 44 | 1007.6 |
| 20260503225631 | 50 | 67 | 1.0 | 3.0 | 0.00 | 0.00 | 0.00 | 44 | 1007.7 |
| 20260503225131 | 50 | 176 | 2.0 | 12.0 | 0.00 | 0.00 | 0.00 | 43 | 1007.4 |
| 20260503224629 | 50 | 354 | 3.0 | 6.0 | 0.00 | 0.00 | 0.00 | 46 | 1007.4 |
| 20260503224126 | 51 | 38 | 2.0 | 3.0 | 0.00 | 0.00 | 0.00 | 47 | 1007.2 |
| 20260503223624 | 50 | 303 | 1.0 | 6.0 | 0.00 | 0.00 | 0.00 | 43 | 1007.5 |
| 20260503223120 | 50 | 3 | 3.0 | 5.0 | 0.00 | 0.00 | 0.00 | 44 | 1007.1 |
| 20260503222618 | 50 | 356 | 2.0 | 8.0 | 0.00 | 0.00 | 0.00 | 43 | 1007.2 |
| 20260503222115 | 51 | 239 | 4.0 | 8.0 | 0.00 | 0.00 | 0.00 | 43 | 1007.2 |
| 20260503221614 | 51 | 307 | 2.0 | 7.0 | 0.00 | 0.00 | 0.00 | 43 | 1007.4 |
| 20260503221111 | 50 | 54 | 1.0 | 5.0 | 0.00 | 0.00 | 0.00 | 44 | 1007.2 |
| 20260503220607 | 51 | 329 | 4.0 | 11.0 | 0.00 | 0.00 | 0.00 | 44 | 1007.1 |
| 20260503220104 | 51 | 145 | 1.0 | 6.0 | 0.00 | 0.00 | 0.00 | 46 | 1007.1 |
| 20260503215601 | 50 | 329 | 4.0 | 6.0 | 0.00 | 0.00 | 0.00 | 45 | 1007.3 |
| 20260503215057 | 50 | 26 | 2.0 | 9.0 | 0.00 | 0.00 | 0.00 | 44 | 1007.3 |
| 20260503214556 | 51 | 324 | 2.0 | 7.0 | 0.00 | 0.00 | 0.00 | 45 | 1007.1 |
| 20260503214052 | 51 | 241 | 3.0 | 11.0 | 0.00 | 0.00 | 0.00 | 45 | 1007.3 |
| 20260503213551 | 51 | 346 | 2.0 | 8.0 | 0.00 | 0.00 | 0.00 | 44 | 1007.0 |
| 20260503213047 | 50 | 338 | 4.0 | 6.0 | 0.00 | 0.00 | 0.00 | 45 | 1007.2 |
| 20260503212544 | 49 | 218 | 3.0 | 6.0 | 0.00 | 0.00 | 0.00 | 47 | 1007.0 |
| 20260503212042 | 49 | 128 | 1.0 | 10.0 | 0.00 | 0.00 | 0.00 | 44 | 1007.0 |
| 20260503211539 | 50 | 298 | 5.0 | 10.0 | 0.00 | 0.00 | 0.00 | 46 | 1007.0 |
| 20260503211034 | 51 | 4 | 2.0 | 8.0 | 0.00 | 0.00 | 0.00 | 45 | 1007.1 |
| 20260503210531 | 51 | 280 | 6.0 | 13.0 | 0.00 | 0.00 | 0.00 | 43 | 1007.0 |
| 20260503210027 | 51 | 32 | 3.0 | 13.0 | 0.00 | 0.00 | 0.00 | 46 | 1007.0 |
| 20260503205524 | 51 | 284 | 7.0 | 11.0 | 0.00 | 0.00 | 0.00 | 42 | 1006.9 |
| 20260503205020 | 51 | 27 | 2.0 | 11.0 | 0.00 | 0.00 | 0.00 | 43 | 1006.6 |
| 20260503204517 | 51 | 295 | 5.0 | 8.0 | 0.00 | 0.00 | 0.00 | 43 | 1006.7 |
| 20260503204014 | 50 | 265 | 3.0 | 22.0 | 0.00 | 0.00 | 0.00 | 45 | 1006.6 |
| 20260503203512 | 51 | 298 | 0.0 | 10.0 | 0.00 | 0.00 | 0.00 | 45 | 1006.9 |
| 20260503203009 | 51 | 223 | 3.0 | 14.0 | 0.00 | 0.00 | 0.00 | 42 | 1006.8 |
| 20260503202506 | 51 | 334 | 8.0 | 10.0 | 0.00 | 0.00 | 0.00 | 44 | 1006.6 |
| 20260503202004 | 53 | 322 | 9.0 | 9.0 | 0.00 | 0.00 | 0.00 | 44 | 1006.6 |
| 20260503201502 | 53 | 204 | 0.0 | 7.0 | 0.00 | 0.00 | 0.00 | 41 | 1006.5 |
| 20260503200959 | 55 | 186 | 5.0 | 9.0 | 0.00 | 0.00 | 0.00 | 40 | 1006.5 |
| 20260503200455 | 53 | 293 | 1.0 | 11.0 | 0.00 | 0.00 | 0.00 | 40 | 1006.5 |
| 20260503195952 | 54 | 268 | 5.0 | 8.0 | 0.00 | 0.00 | 0.00 | 40 | 1006.3 |
| 20260503195449 | 55 | 313 | 3.0 | 15.0 | 0.00 | 0.00 | 0.00 | 39 | 1006.3 |
| 20260503194945 | 54 | 246 | 9.0 | 11.0 | 0.00 | 0.00 | 0.00 | 42 | 1006.3 |
| 20260503194443 | 55 | 338 | 3.0 | 8.0 | 0.00 | 0.00 | 0.00 | 38 | 1006.7 |
| 20260503193938 | 54 | 261 | 4.0 | 15.0 | 0.00 | 0.00 | 0.00 | 39 | 1006.3 |
| 20260503193434 | 54 | 276 | 6.0 | 13.0 | 0.00 | 0.00 | 0.00 | 38 | 1006.5 |
| 20260503192929 | 54 | 11 | 4.0 | 10.0 | 0.00 | 0.00 | 0.00 | 46 | 1006.2 |
| 20260503192426 | 53 | 279 | 4.0 | 10.0 | 0.00 | 0.00 | 0.00 | 43 | 1006.5 |
| 20260503191922 | 53 | 63 | 3.0 | 9.0 | 0.00 | 0.00 | 0.00 | 41 | 1006.5 |
| 20260503191420 | 52 | 62 | 0.0 | 5.0 | 0.00 | 0.00 | 0.00 | 47 | 1006.2 |
| 20260503190916 | 51 | 266 | 3.0 | 9.0 | 0.00 | 0.00 | 0.00 | 46 | 1006.3 |
| 20260503190413 | 51 | 282 | 4.0 | 20.0 | 0.00 | 0.00 | 0.00 | 43 | 1006.5 |
| 20260503185910 | 51 | 315 | 2.0 | 6.0 | 0.00 | 0.00 | 0.00 | 43 | 1006.3 |